This demonstration page uses our WeatherBlox Daily Observations layout. Learn more.

40.92945, -100.16068

Hourly Observations for March 30, 2018

Temp ( °F °C ) Dew Point ( °F °C ) Humidity (%) Winds ( mph kmh ) Pressure ( in mb ) Visibility ( mi km ) Precip ( " mm )
12:15 am 00:15 Clear 30 -1.2 25 -3.7 83 83 Calm 30.36 1028 10 16.0934 0 0
12:35 am 00:35 Clear 28 -2.3 24 -4.3 86 86 Calm 30.36 1028 10 16.0934 0 0
12:55 am 00:55 Clear 27 -2.6 24 -4.4 88 88 Calm 30.36 1028 10 16.0934 0 0
1:15 am 01:15 Clear 27 -2.6 24 -4.6 86 86 Calm 30.36 1028 10 16.0934 0 0
1:35 am 01:35 Clear 27 -2.9 24 -4.5 89 89 W 3 6 30.39 1029 10 16.0934 0 0
1:55 am 01:55 Clear 25 -3.7 22 -5.5 87 87 W 3 6 30.42 1030 10 16.0934 0 0
2:15 am 02:15 Clear 25 -3.8 22 -5.3 89 89 WSW 5 7 30.42 1030 10 16.0934 0 0
2:35 am 02:35 Clear 25 -4.1 22 -5.3 91 91 W 5 7 30.42 1030 10 16.0934 0 0
2:55 am 02:55 Clear 26 -3.5 23 -4.9 90 90 W 3 6 30.42 1030 10 16.0934 0 0
3:15 am 03:15 Clear 25 -4 22 -5.5 89 89 SSW 3 6 30.39 1029 10 16.0934 0 0
3:35 am 03:35 Clear 23 -4.9 20 -6.6 88 88 SSW 7 11 30.39 1029 10 16.0934 0 0
3:55 am 03:55 Clear 24 -4.5 21 -6 89 89 S 6 9 30.39 1029 10 16.0934 0 0
4:15 am 04:15 Clear 26 -3.3 23 -5.1 88 88 SSW 7 11 30.39 1029 10 16.0934 0 0
4:35 am 04:35 Clear 26 -3.5 22 -5.5 86 86 SW 6 9 30.33 1027 10 16.0934 0 0
4:55 am 04:55 Clear 25 -3.7 22 -5.7 86 86 Calm 30.36 1028 10 16.0934 0 0
5:15 am 05:15 Clear 27 -2.7 23 -5.2 83 83 SW 3 6 30.33 1027 10 16.0934 0 0
5:40 am 05:40 Clear 25 -4.1 20 -6.6 83 83 Calm 30.36 1028 10 16.0934 0 0
5:55 am 05:55 Clear 24 -4.7 20 -6.7 86 86 W 3 6 30.36 1028 10 16.0934 0 0
6:15 am 06:15 Clear 26 -3.6 21 -6.2 82 82 W 3 6 30.39 1029 10 16.0934 0 0
6:35 am 06:35 Clear 27 -2.6 22 -5.5 81 81 W 5 7 30.36 1028 10 16.0934 0 0
6:55 am 06:55 Clear 26 -3.2 20 -6.4 79 79 Calm 30.36 1028 10 16.0934 0 0
7:15 am 07:15 Clear 24 -4.5 20 -6.4 87 87 Calm 30.39 1029 10 16.0934 0 0
7:35 am 07:35 Sunny 23 -5 20 -6.6 89 89 Calm 30.39 1029 10 16.0934 0 0
7:55 am 07:55 Sunny 23 -5.2 19 -7 87 87 Calm 30.39 1029 10 16.0934 0 0
8:15 am 08:15 Sunny 27 -2.9 23 -4.8 87 87 SW 3 6 30.36 1028 10 16.0934 0 0
8:35 am 08:35 Sunny 31 -0.8 25 -4 79 79 Calm 30.36 1028 10 16.0934 0 0
8:55 am 08:55 Sunny 32 0 26 -3.5 78 78 Calm 30.33 1027 10 16.0934 0 0
9:15 am 09:15 Sunny 34 1.2 27 -2.9 74 74 Calm 30.3 1026 10 16.0934 0 0
9:35 am 09:35 Sunny 38 3.1 28 -2.5 67 67 WSW 5 7 30.27 1025 10 16.0934 0 0
9:55 am 09:55 Sunny 41 5.1 30 -1.1 65 65 SW 10 17 30.27 1025 10 16.0934 0 0
10:15 am 10:15 Sunny 43 6.3 31 -0.4 63 63 WSW 8 13 30.24 1024 10 16.0934 0 0
10:35 am 10:35 Sunny 46 7.8 32 0 58 58 WSW 9 15 30.24 1024 10 16.0934 0 0
10:55 am 10:55 Sunny 48 8.8 32 0 54 54 SW 13 20 30.21 1023 10 16.0934 0 0
11:15 am 11:15 Sunny 49 9.5 32 -0.2 51 51 WSW 8 13 30.21 1023 10 16.0934 0 0
11:35 am 11:35 Sunny 51 10.5 32 0 49 49 SSW 7 11 30.18 1022 10 16.0934 0 0
11:55 am 11:55 Sunny 52 11.2 31 -0.5 45 45 SW 9 15 30.18 1022 10 16.0934 0 0
12:15 pm 12:15 Sunny 54 12.2 31 -0.7 41 41 SSW 12 19 30.15 1021 10 16.0934 0 0
12:35 pm 12:35 Sunny 55 12.5 29 -1.9 37 37 SW 16 26 30.12 1020 10 16.0934 0 0
12:55 pm 12:55 Sunny 55 13 28 -2.3 35 35 SW 14 22 30.12 1020 10 16.0934 0 0
1:15 pm 13:15 Sunny 56 13.1 28 -2.3 35 35 SW 16 26 30.09 1019 10 16.0934 0 0
1:35 pm 13:35 Sunny 57 13.9 26 -3.6 30 30 SW 12 19 30.09 1019 10 16.0934 0 0
1:55 pm 13:55 Sunny 58 14.5 25 -4 28 28 SSW 21 33 30.06 1018 10 16.0934 0 0
2:15 pm 14:15 Sunny 59 14.9 25 -4.1 27 27 SSW 20 31 30.03 1017 10 16.0934 0 0
2:35 pm 14:35 Sunny 60 15.3 28 -2.5 29 29 SSW 16 26 30 1016 10 16.0934 0 0
2:55 pm 14:55 Sunny 61 16.2 26 -3.5 26 26 SSW 16 26 30 1016 10 16.0934 0 0
3:15 pm 15:15 Sunny 62 16.7 22 -5.8 21 21 S 25 41 29.94 1014 10 16.0934 0 0
3:35 pm 15:35 Sunny 63 17.2 22 -5.3 21 21 SSW 25 41 29.94 1014 10 16.0934 0 0
3:55 pm 15:55 Sunny 64 17.6 23 -5 21 21 S 25 41 29.91 1013 10 16.0934 0 0
4:15 pm 16:15 Sunny 64 18 25 -3.8 23 23 SSW 23 37 29.91 1013 10 16.0934 0 0
4:35 pm 16:35 Partly Cloudy 64 17.9 26 -3.3 24 24 SSW 23 37 29.88 1012 10 16.0934 0 0
4:55 pm 16:55 Partly Cloudy 65 18.3 27 -3 23 23 SSW 24 39 29.88 1012 10 16.0934 0 0
5:15 pm 17:15 Mostly Cloudy 64 17.8 27 -3 24 24 SW 25 41 29.85 1011 10 16.0934 0 0
5:35 pm 17:35 Cloudy 64 17.5 26 -3.1 24 24 SSW 18 30 29.85 1011 10 16.0934 0 0
5:55 pm 17:55 Mostly Cloudy 64 17.5 26 -3.3 24 24 SSW 18 30 29.85 1011 10 16.0934 0 0
6:15 pm 18:15 Mostly Cloudy 64 17.8 27 -2.9 24 24 SSW 22 35 29.83 1010 10 16.0934 0 0
6:35 pm 18:35 Partly Cloudy 63 17.1 29 -1.5 28 28 SSW 18 30 29.83 1010 7 11.26538 0 0
6:55 pm 18:55 Partly Cloudy 64 17.5 30 -1 29 29 SSW 20 31 29.8 1009 10 16.0934 0 0
7:15 pm 19:15 Partly Cloudy 63 17 31 -0.5 31 31 S 17 28 29.8 1009 10 16.0934 0 0
7:35 pm 19:35 Partly Cloudy 61 16 32 -0.1 34 34 SSW 13 20 29.8 1009 10 16.0934 0 0
7:55 pm 19:55 Mostly Cloudy 60 15.5 33 0.5 36 36 S 14 22 29.77 1008 10 16.0934 0 0
8:15 pm 20:15 Partly Cloudy 59 15 35 1.4 40 40 S 15 24 29.77 1008 10 16.0934 0 0
8:35 pm 20:35 Clear 59 15 36 2.4 43 43 S 16 26 29.77 1008 10 16.0934 0 0
8:55 pm 20:55 Clear 59 14.9 38 3.5 47 47 S 21 33 29.74 1007 10 16.0934 0 0
9:15 pm 21:15 Clear 58 14.7 39 4 49 49 SSW 21 33 29.77 1008 10 16.0934 0 0
9:35 pm 21:35 Partly Cloudy 58 14.3 40 4.2 51 51 SSW 20 31 29.8 1009 10 16.0934 0 0
9:55 pm 21:55 Clear 57 14 40 4.5 53 53 SSW 18 30 29.8 1009 10 16.0934 0 0
10:15 pm 22:15 Clear 57 13.7 40 4.6 54 54 SSW 20 31 29.8 1009 10 16.0934 0 0
10:35 pm 22:35 Clear 56 13.3 40 4.6 56 56 SSW 17 28 29.8 1009 10 16.0934 0 0
10:55 pm 22:55 Clear 55 13 40 4.6 57 57 SSW 13 20 29.8 1009 10 16.0934 0 0
11:15 pm 23:15 Clear 55 12.8 40 4.7 58 58 SSW 13 20 29.8 1009 10 16.0934 0 0
11:35 pm 23:35 Clear 54 12.3 40 4.6 60 60 SSW 10 17 29.8 1009 10 16.0934 0 0
11:55 pm 23:55 Clear 53 11.9 40 4.6 61 61 WSW 7 11 29.8 1009 10 16.0934 0 0

Powered by AerisWeather